Weather History for Indianapolis, IN

Change the Weather History Date:

Wednesday, April 11, 2012

  Actual Average Record
Temperature  
Mean Temperature 42 °F 52 °F  
Max Temperature 54 °F 62 °F 89 °F (1930)
Min Temperature 29 °F 41 °F 24 °F (1973)
Degree Days  
Heating Degree Days 23 14  
Month to date heating degree days 118 169  
Since 1 July heating degree days 3873 5019  
Cooling Degree Days 0 0  
Month to date cooling degree days 4 0  
Year to date cooling degree days 49 2  
Moisture  
Dew Point 25 °F    
Average Humidity 54    
Maximum Humidity 75    
Minimum Humidity 32    
Precipitation  
Precipitation 0.00 in 0.12 in 1.72 in (1944)
Month to date precipitation 0.70 1.35  
Year to date precipitation 9.70 9.89  
Snow  
Snow 0.00 in 0.00 in 1.70 in (1940)
Month to date snowfall 0.0 0.1  
Since 1 July snowfall 9.8 25.8  
Snow Depth 0.00 in    
Sea Level Pressure  
Sea Level Pressure 30.20 in    
Wind  
Wind Speed 8 mph (NNW)    
Max Wind Speed 17 mph    
Max Gust Speed 22 mph    
Visibility 10 miles    
Events      
T = Trace of Precipitation, MM = Missing Value Source: NWS Daily Summary

Daily Weather History Graph

Daily Weather History Graph

Search for Another Location

Airport:

Trip Planner

Search our weather history database for the weather conditions in past years. The results will help you decide how hot, cold, wet, or windy it might be!

Date:

Astronomy

Apr. 11, 2012 Rise Set
Actual Time 7:13 AM EDT 8:19 PM EDT
Civil Twilight 6:45 AM EDT 8:47 PM EDT
Nautical Twilight 6:12 AM EDT 9:20 PM EDT
Astronomical Twilight 5:37 AM EDT 9:55 PM EDT
Moon 1:13 AM EDT (4/11) 11:01 AM EDT (4/11)
Length of Visible Light 14h 02m
Length of Day
13h 06m
Waning Gibbous, 69% of the Moon is Illuminated
Apr 11
Waning Gibbous
Apr 13
Last Quarter
Apr 21
New
Apr 29
First Quarter
May 5
Full

Hourly Weather History & Observations

Time (EDT) Temp. Windchill Dew Point Humidity Pressure Visibility Wind Dir Wind Speed Gust Speed Precip Events Conditions
12:54 AM 35.1 °F 30.1 °F 21.0 °F 57% 30.11 in 10.0 mi North 5.8 mph - N/A   Clear
1:54 AM 33.1 °F 27.7 °F 21.9 °F 64% 30.12 in 10.0 mi NNW 5.8 mph - N/A   Clear
2:54 AM 30.9 °F 25.2 °F 21.9 °F 69% 30.13 in 10.0 mi NW 5.8 mph - N/A   Clear
3:54 AM 30.2 °F 25.4 °F 21.2 °F 69% 30.12 in 10.0 mi WNW 4.6 mph - N/A   Clear
4:54 AM 30.0 °F 24.1 °F 21.9 °F 72% 30.14 in 10.0 mi WNW 5.8 mph - N/A   Clear
5:54 AM 30.2 °F 25.4 °F 21.2 °F 69% 30.14 in 10.0 mi WNW 4.6 mph - N/A   Clear
6:54 AM 28.9 °F 21.9 °F 21.0 °F 72% 30.18 in 10.0 mi WNW 6.9 mph - N/A   Clear
7:54 AM 32.0 °F 24.2 °F 21.9 °F 66% 30.19 in 10.0 mi WNW 9.2 mph - N/A   Clear
8:54 AM 36.0 °F 28.0 °F 23.0 °F 59% 30.21 in 10.0 mi NW 11.5 mph - N/A   Clear
9:54 AM 41.0 °F 33.9 °F 25.0 °F 53% 30.22 in 10.0 mi NW 12.7 mph - N/A   Clear
10:54 AM 45.0 °F 38.9 °F 27.0 °F 49% 30.23 in 10.0 mi North 12.7 mph 19.6 mph N/A   Partly Cloudy
11:54 AM 46.9 °F - 27.0 °F 46% 30.24 in 10.0 mi NNW 12.7 mph 19.6 mph N/A   Mostly Cloudy
12:54 PM 48.9 °F - 28.0 °F 44% 30.23 in 10.0 mi North 12.7 mph 19.6 mph N/A   Mostly Cloudy
1:54 PM 48.9 °F - 27.0 °F 43% 30.23 in 10.0 mi North 15.0 mph - N/A   Mostly Cloudy
2:54 PM 50.0 °F - 26.1 °F 39% 30.23 in 10.0 mi NW 12.7 mph 17.3 mph N/A   Mostly Cloudy
3:54 PM 54.0 °F - 28.0 °F 37% 30.22 in 10.0 mi NW 9.2 mph - N/A   Mostly Cloudy
4:54 PM 52.0 °F - 27.0 °F 38% 30.23 in 10.0 mi NNW 10.4 mph - N/A   Mostly Cloudy
5:54 PM 54.0 °F - 26.1 °F 34% 30.23 in 10.0 mi North 6.9 mph - N/A   Mostly Cloudy
6:54 PM 53.1 °F - 24.1 °F 32% 30.23 in 10.0 mi Calm Calm - N/A   Scattered Clouds
7:54 PM 50.0 °F - 24.1 °F 36% 30.23 in 10.0 mi North 4.6 mph - N/A   Partly Cloudy
8:54 PM 50.0 °F - 23.0 °F 35% 30.23 in 10.0 mi Calm Calm - N/A   Clear
9:54 PM 45.0 °F 43.5 °F 27.0 °F 49% 30.25 in 10.0 mi WNW 3.5 mph - N/A   Clear
10:54 PM 42.1 °F 39.2 °F 27.0 °F 55% 30.25 in 10.0 mi NW 4.6 mph - N/A   Clear
11:54 PM 43.0 °F 38.2 °F 28.0 °F 56% 30.25 in 10.0 mi North 8.1 mph - N/A   Clear